EW8046 Weather Reports


time (UTC)temp
F
wind
direction
speed
knots
gust
knots
rain 1hr
in
rain 24hr
in
rain mn
in
humidity
%
barometer
mb
20260507071623 54 205 4.3 8.7 0.00 0.00 0.00 84 1021.3
20260507071116 54 202 4.3 8.7 0.00 0.00 0.00 84 1021.2
20260507070611 54 185 4.3 8.7 0.00 0.00 0.00 84 1021.2
20260507070105 54 193 4.3 7.8 0.00 0.00 0.00 84 1021.2
20260507065604 54 223 3.5 7.0 0.00 0.00 0.00 84 1021.1
20260507065102 54 157 4.3 7.8 0.00 0.00 0.00 84 1021.2
20260507064102 54 201 4.3 8.7 0.00 0.00 0.00 83 1021.1
20260507063602 54 198 4.3 7.8 0.00 0.00 0.00 83 1021.1
20260507063101 54 205 5.2 9.6 0.00 0.00 0.00 83 1021.1
20260507062602 54 199 4.3 9.6 0.00 0.00 0.00 83 1021.0
20260507062101 55 202 4.3 8.7 0.00 0.00 0.00 83 1021.1
20260507061600 55 171 5.2 8.7 0.00 0.00 0.00 82 1021.0
20260507061101 55 179 5.2 9.6 0.00 0.00 0.00 82 1021.1
20260507060601 55 194 5.2 9.6 0.00 0.00 0.00 82 1021.1
20260507060101 55 184 4.3 8.7 0.00 0.00 0.00 82 1021.2
20260507055601 55 194 4.3 8.7 0.00 0.00 0.00 81 1021.2
20260507055101 55 188 3.5 7.0 0.00 0.00 0.00 81 1021.2
20260507054601 55 200 2.6 5.2 0.00 0.00 0.00 81 1021.3
20260507054101 55 170 2.6 5.2 0.00 0.00 0.00 81 1021.4
20260507053601 55 170 1.7 4.3 0.00 0.00 0.00 81 1021.4
20260507052552 55 150 1.7 4.3 0.00 0.00 0.00 81 1021.4
20260507052046 55 189 1.7 4.3 0.00 0.00 0.00 81 1021.4
20260507050534 56 194 4.3 7.0 0.00 0.00 0.00 80 1021.3
20260507045532 56 206 3.5 7.8 0.00 0.00 0.00 80 1021.3
20260507045032 56 201 3.5 7.8 0.00 0.00 0.00 79 1021.3
20260507043529 56 194 3.5 6.1 0.00 0.00 0.00 79 1021.2
20260507042531 56 172 2.6 6.1 0.00 0.00 0.00 78 1021.3
20260507042029 56 177 2.6 7.0 0.00 0.00 0.00 78 1021.2
20260507041529 56 198 2.6 7.0 0.00 0.00 0.00 78 1021.1
20260507041029 56 198 3.5 7.8 0.00 0.00 0.00 78 1021.2
20260507040031 57 198 4.3 7.0 0.00 0.00 0.00 78 1021.1
20260507035530 57 217 4.3 7.0 0.00 0.00 0.00 78 1021.0
20260507035030 57 199 4.3 7.8 0.00 0.00 0.00 77 1021.0
20260507034529 57 188 4.3 8.7 0.00 0.00 0.00 77 1021.0
20260507034029 57 193 4.3 8.7 0.00 0.00 0.00 77 1020.9
20260507033529 57 194 5.2 7.8 0.00 0.00 0.00 77 1020.9
20260507033029 57 200 5.2 9.6 0.00 0.00 0.00 76 1020.9
20260507032530 57 191 6.1 9.6 0.00 0.00 0.00 76 1020.9
20260507032029 58 208 5.2 8.7 0.00 0.00 0.00 76 1020.8
20260507031528 58 194 5.2 9.6 0.00 0.00 0.00 75 1020.8
20260507031029 58 208 5.2 9.6 0.00 0.00 0.00 75 1020.8
20260507030528 58 200 5.2 9.6 0.00 0.00 0.00 75 1020.7
20260507030028 58 200 4.3 7.8 0.00 0.00 0.00 74 1020.7
20260507025530 58 204 4.3 7.8 0.00 0.00 0.00 74 1020.6
20260507025030 58 153 4.3 7.8 0.00 0.00 0.00 74 1020.6
20260507024529 58 191 4.3 7.8 0.00 0.00 0.00 74 1020.6
20260507024028 58 194 4.3 7.8 0.00 0.00 0.00 74 1020.5
20260507023529 58 184 4.3 7.8 0.00 0.00 0.00 74 1020.5
20260507023028 58 186 4.3 7.8 0.00 0.00 0.00 74 1020.5
20260507022029 58 163 5.2 8.7 0.00 0.00 0.00 74 1020.4
20260507021529 58 201 5.2 8.7 0.00 0.00 0.00 73 1020.4
20260507021029 58 198 4.3 7.0 0.00 0.00 0.00 74 1020.4
20260507020529 58 191 4.3 7.0 0.00 0.00 0.00 73 1020.4
20260507020028 58 198 4.3 7.8 0.00 0.00 0.00 73 1020.4
20260507015529 58 180 4.3 7.8 0.00 0.00 0.00 73 1020.5
20260507015029 58 180 4.3 7.8 0.00 0.00 0.00 73 1020.4
20260507014529 58 202 3.5 7.0 0.00 0.00 0.00 73 1020.5
20260507014029 58 189 4.3 6.1 0.00 0.00 0.00 73 1020.5
20260507013528 58 169 4.3 7.0 0.00 0.00 0.00 73 1020.5
20260507013029 58 181 4.3 7.0 0.00 0.00 0.00 73 1020.5
20260507012529 58 175 4.3 7.0 0.00 0.00 0.00 73 1020.6
20260507012030 58 186 4.3 8.7 0.00 0.00 0.00 73 1020.6
20260507011529 58 193 4.3 8.7 0.00 0.00 0.00 73 1020.6
20260507011028 58 181 3.5 7.8 0.00 0.00 0.00 73 1020.5
20260507010528 58 200 3.5 7.0 0.00 0.00 0.00 73 1020.6
20260507005529 58 172 4.3 9.6 0.00 0.00 0.00 74 1020.6
20260507005031 58 200 5.2 9.6 0.00 0.00 0.00 74 1020.6
20260507004529 58 190 5.2 9.6 0.00 0.00 0.00 73 1020.7
20260507004029 58 192 5.2 8.7 0.00 0.00 0.00 73 1020.7
20260507003529 58 181 3.5 8.7 0.00 0.00 0.00 73 1020.7
20260507003029 58 190 3.5 7.8 0.00 0.00 0.00 73 1020.7
20260507002529 58 184 3.5 7.0 0.00 0.00 0.00 73 1020.7
20260507002030 58 157 3.5 7.8 0.00 0.00 0.00 73 1020.7
20260507001029 59 186 3.5 7.0 0.00 0.00 0.00 73 1020.6
20260507000029 58 199 3.5 7.0 0.00 0.00 0.00 73 1020.6
20260506235030 58 169 3.5 6.1 0.00 0.00 0.00 73 1020.7
20260506234529 58 169 3.5 7.0 0.00 0.00 0.00 73 1020.7
20260506233529 58 182 4.3 8.7 0.00 0.00 0.00 73 1020.7
20260506233029 58 196 5.2 8.7 0.00 0.00 0.00 73 1020.7
20260506232529 58 181 5.2 10.4 0.00 0.00 0.00 73 1020.8
20260506232029 58 212 6.1 10.4 0.00 0.00 0.00 73 1020.8
20260506231532 58 0 5.2 8.7 0.00 0.00 0.00 72 1020.8
20260506231028 58 184 4.3 8.7 0.00 0.00 0.00 72 1020.9
20260506230529 58 192 4.3 7.0 0.00 0.00 0.00 72 1020.8
20260506230029 58 202 4.3 8.7 0.00 0.00 0.00 72 1020.8
20260506225529 58 201 5.2 9.6 0.00 0.00 0.00 72 1020.9
20260506224529 58 209 5.2 8.7 0.00 0.00 0.00 73 1020.9
20260506224030 58 195 5.2 9.6 0.00 0.00 0.00 72 1020.8
20260506223529 58 211 6.1 11.3 0.00 0.00 0.00 72 1020.8
20260506222529 58 200 7.0 13.9 0.00 0.00 0.00 73 1020.9
20260506222029 58 204 7.0 13.9 0.00 0.00 0.00 72 1020.9
20260506221529 58 206 7.0 12.2 0.00 0.00 0.00 72 1021.0
20260506221029 58 205 6.1 11.3 0.00 0.00 0.00 72 1021.0
20260506220532 58 217 6.1 11.3 0.00 0.00 0.00 71 1021.0
20260506220029 59 173 6.1 12.2 0.00 0.00 0.00 70 1021.0
20260506215028 59 200 7.0 12.2 0.00 0.00 0.00 70 1020.9
20260506214028 59 198 6.1 11.3 0.00 0.00 0.00 69 1020.9
20260506213531 59 204 6.1 11.3 0.00 0.00 0.00 69 1021.0
20260506213029 60 196 5.2 11.3 0.00 0.00 0.00 69 1021.0
20260506212529 59 205 5.2 9.6 0.00 0.00 0.00 70 1020.9
20260506211528 59 197 6.1 9.6 0.00 0.00 0.00 70 1021.1
20260506211029 59 181 6.1 12.2 0.00 0.00 0.00 70 1021.0
20260506210529 59 157 6.1 12.2 0.00 0.00 0.00 70 1021.0
20260506210027 59 196 5.2 9.6 0.00 0.00 0.00 70 1021.1
20260506205527 59 182 5.2 10.4 0.00 0.00 0.00 70 1021.0
20260506205025 59 198 6.1 10.4 0.00 0.00 0.00 70 1021.0
20260506204524 59 217 6.1 10.4 0.00 0.00 0.00 70 1021.0
20260506204025 59 204 6.1 11.3 0.00 0.00 0.00 70 1020.9
20260506203522 59 200 6.1 11.3 0.00 0.00 0.00 70 1020.8
20260506202521 59 215 6.1 13.0 0.00 0.00 0.00 71 1020.9
20260506202021 59 192 7.0 13.0 0.00 0.00 0.00 71 1020.9
20260506201521 59 182 7.0 13.0 0.00 0.00 0.00 71 1020.9
20260506201021 58 180 7.0 13.9 0.00 0.00 0.00 71 1020.9
20260506200521 58 194 7.8 13.9 0.00 0.00 0.00 71 1020.9
20260506200021 59 223 7.8 13.9 0.00 0.00 0.00 70 1020.8
20260506195520 58 202 7.0 13.9 0.00 0.00 0.00 71 1020.8
20260506195021 58 207 6.1 12.2 0.00 0.00 0.00 72 1020.8
20260506194520 58 221 6.1 12.2 0.00 0.00 0.00 72 1020.8
20260506193520 58 177 5.2 9.6 0.00 0.00 0.00 73 1020.8
20260506193021 58 213 5.2 10.4 0.00 0.00 0.00 75 1020.8
20260506192020 57 206 5.2 9.6 0.00 0.00 0.00 75 1020.8
20260506191521 57 180 5.2 9.6 0.00 0.00 0.00 75 1020.7
20260506191020 57 157 4.3 7.8 0.00 0.00 0.00 76 1020.7
20260506190520 57 172 4.3 10.4 0.00 0.00 0.00 76 1020.6
20260506190017 57 213 5.2 10.4 0.00 0.00 0.00 76 1020.6
20260506185517 57 178 3.5 7.8 0.00 0.00 0.00 77 1020.7
20260506184517 56 184 3.5 7.8 0.00 0.00 0.00 78 1020.7
20260506183516 56 200 3.5 9.6 0.00 0.00 0.00 78 1020.7
20260506183017 56 196 4.3 8.7 0.00 0.00 0.00 79 1020.7
20260506182516 56 198 4.3 8.7 0.00 0.00 0.00 79 1020.8
20260506182018 56 193 3.5 8.7 0.00 0.00 0.00 80 1020.7
20260506181014 56 163 4.3 7.8 0.00 0.00 0.00 81 1020.8
20260506180515 56 188 4.3 7.8 0.00 0.00 0.00 82 1020.8
20260506180014 56 131 4.3 7.0 0.00 0.00 0.00 82 1020.6
20260506175015 55 185 4.3 7.8 0.00 0.00 0.00 84 1020.3
20260506174515 55 175 4.3 7.8 0.00 0.00 0.00 85 1020.4
20260506174014 55 196 5.2 8.7 0.00 0.00 0.00 85 1020.5
20260506173514 55 180 5.2 8.7 0.00 0.00 0.00 85 1020.4
20260506171514 55 203 3.5 7.8 0.00 0.00 0.00 87 1020.4
20260506171015 54 186 3.5 7.8 0.00 0.00 0.00 87 1020.6
20260506170514 54 196 2.6 7.8 0.00 0.00 0.00 87 1020.7
20260506170006 54 194 1.7 5.2 0.00 0.00 0.00 87 1020.6
20260506165508 54 175 2.6 6.1 0.00 0.00 0.00 87 1020.6
20260506165005 54 155 3.5 7.8 0.00 0.00 0.00 87 1020.4
20260506164504 54 158 3.5 7.8 0.00 0.00 0.00 87 1020.4
20260506164004 54 178 3.5 8.7 0.00 0.00 0.00 87 1020.4
20260506163504 54 180 3.5 8.7 0.00 0.00 0.00 87 1020.5
20260506163005 54 166 3.5 8.7 0.00 0.00 0.00 87 1020.4
20260506162504 54 204 4.3 8.7 0.00 0.00 0.00 87 1020.3
20260506162003 54 154 4.3 7.8 0.00 0.00 0.00 87 1020.1
20260506161501 54 188 3.5 8.7 0.00 0.00 0.00 88 1020.2
20260506161001 54 192 4.3 8.7 0.00 0.00 0.00 88 1020.1
20260506160501 54 182 4.3 9.6 0.00 0.00 0.00 88 1019.9
20260506160003 54 205 3.5 9.6 0.00 0.00 0.00 88 1019.7
20260506155502 54 173 3.5 6.1 0.00 0.00 0.00 88 1019.9
20260506154001 54 196 2.6 6.1 0.00 0.00 0.00 88 1020.0
20260506153001 53 171 3.5 7.0 0.00 0.00 0.00 88 1020.3
20260506152501 53 205 3.5 6.1 0.00 0.00 0.00 88 1020.3
20260506152000 54 192 3.5 7.0 0.00 0.00 0.00 88 1020.4
20260506151501 54 192 3.5 7.0 0.00 0.00 0.00 88 1020.2
20260506151001 54 171 3.5 7.8 0.00 0.00 0.00 88 1020.2
20260506150501 53 203 3.5 7.8 0.00 0.00 0.00 88 1020.0
20260506150001 54 184 3.5 7.8 0.00 0.00 0.00 87 1019.9
20260506145501 54 183 2.6 6.1 0.00 0.00 0.00 87 1019.8
20260506145000 54 174 2.6 6.1 0.00 0.00 0.00 87 1019.9
20260506144502 54 186 2.6 5.2 0.00 0.00 0.00 87 1020.0
20260506144001 54 182 2.6 5.2 0.00 0.00 0.00 87 1020.0
20260506143500 54 192 1.7 4.3 0.00 0.00 0.00 87 1020.0
20260506142001 54 216 1.7 5.2 0.00 0.00 0.00 86 1020.0
20260506141501 54 205 2.6 5.2 0.00 0.00 0.00 86 1019.9
20260506141002 54 198 2.6 5.2 0.00 0.00 0.00 86 1019.8
20260506140501 54 180 3.5 7.0 0.00 0.00 0.00 86 1019.7
20260506140000 54 186 2.6 7.0 0.00 0.00 0.00 86 1019.7
20260506135501 54 187 2.6 5.2 0.00 0.00 0.00 86 1019.7
20260506135002 54 182 1.7 4.3 0.00 0.00 0.00 85 1019.7
20260506134501 54 190 1.7 4.3 0.00 0.00 0.00 85 1019.8
20260506134001 54 192 2.6 6.1 0.00 0.00 0.00 85 1019.7
20260506133001 54 176 2.6 5.2 0.00 0.00 0.00 85 1019.7
20260506132501 54 188 2.6 4.3 0.00 0.00 0.00 85 1019.7
20260506132001 54 194 2.6 5.2 0.00 0.00 0.00 85 1019.6
20260506131001 54 182 3.5 7.0 0.00 0.00 0.00 85 1019.4
20260506130500 54 206 2.6 7.0 0.00 0.00 0.00 85 1019.6
20260506130001 54 202 3.5 8.7 0.00 0.00 0.00 85 1019.2
20260506124501 54 189 3.5 7.8 0.00 0.00 0.00 84 1019.2
20260506124001 54 173 3.5 7.8 0.00 0.00 0.00 84 1019.1
20260506123501 54 180 3.5 6.1 0.00 0.00 0.00 84 1019.1
20260506123001 54 0 3.5 6.1 0.00 0.00 0.00 84 1019.1
20260506122501 54 207 4.3 7.0 0.00 0.00 0.00 84 1019.0
20260506122001 54 184 3.5 7.0 0.00 0.00 0.00 84 1018.9
20260506121501 54 193 4.3 10.4 0.00 0.00 0.00 84 1018.9
20260506121001 55 191 4.3 10.4 0.00 0.00 0.00 83 1018.9
20260506120501 55 190 4.3 8.7 0.00 0.00 0.00 83 1018.9
20260506120000 55 167 4.3 9.6 0.00 0.00 0.00 83 1018.9
20260506115502 55 186 4.3 9.6 0.00 0.00 0.00 83 1018.8
20260506115002 55 192 4.3 7.0 0.00 0.00 0.00 83 1018.8
20260506114501 55 186 3.5 7.8 0.00 0.00 0.00 83 1018.8
20260506113502 55 197 3.5 9.6 0.00 0.00 0.00 83 1018.6
20260506113001 55 186 3.5 9.6 0.00 0.00 0.00 83 1018.6
20260506112501 55 203 4.3 8.7 0.00 0.00 0.00 83 1018.6
20260506112001 55 193 3.5 8.7 0.00 0.00 0.00 83 1018.6
20260506111501 55 194 4.3 7.0 0.00 0.00 0.00 83 1018.6
20260506111001 55 175 4.3 7.8 0.00 0.00 0.00 83 1018.6
20260506110000 54 208 5.2 8.7 0.00 0.00 0.00 83 1018.5
20260506105501 54 198 5.2 7.8 0.00 0.00 0.00 83 1018.4
20260506105001 54 194 4.3 7.8 0.00 0.00 0.00 83 1018.5
20260506104501 54 197 3.5 7.0 0.00 0.00 0.00 83 1018.5
20260506104001 54 202 4.3 7.0 0.00 0.00 0.00 83 1018.3
20260506103500 54 194 4.3 7.0 0.00 0.00 0.00 83 1018.3
20260506102501 54 196 3.5 7.0 0.00 0.00 0.00 83 1018.2
20260506102001 54 202 4.3 7.0 0.00 0.00 0.00 83 1018.3
20260506101002 54 190 5.2 7.8 0.00 0.00 0.00 83 1018.2
20260506100501 54 188 5.2 8.7 0.00 0.00 0.00 83 1018.2
20260506100002 54 194 6.1 10.4 0.00 0.00 0.00 83 1018.1
20260506094501 55 205 7.0 12.2 0.00 0.00 0.00 83 1018.0
20260506094001 55 180 7.8 13.0 0.00 0.00 0.00 83 1017.9
20260506093500 55 196 7.8 13.0 0.00 0.00 0.00 83 1017.9
20260506093001 55 190 6.1 10.4 0.00 0.00 0.00 83 1017.9
20260506092501 55 194 6.1 10.4 0.00 0.00 0.00 83 1017.9
20260506092001 55 190 6.1 9.6 0.00 0.00 0.00 83 1017.9
20260506091502 55 0 6.1 9.6 0.00 0.00 0.00 83 1017.7
20260506090502 55 195 5.2 9.6 0.00 0.00 0.00 82 1017.7
20260506090002 55 187 5.2 9.6 0.00 0.00 0.00 82 1017.7
20260506085501 55 204 5.2 7.8 0.00 0.00 0.00 82 1017.7
20260506085000 55 165 5.2 8.7 0.00 0.00 0.00 82 1017.6
20260506084002 55 210 5.2 9.6 0.00 0.00 0.00 82 1017.5
20260506083001 55 171 4.3 8.7 0.00 0.00 0.00 81 1017.4
20260506082501 56 182 3.5 7.8 0.00 0.00 0.00 81 1017.4
20260506082001 56 171 4.3 8.7 0.00 0.00 0.00 81 1017.3
20260506081000 56 191 2.6 7.0 0.00 0.00 0.00 81 1017.2
20260506080501 56 201 1.7 7.0 0.00 0.00 0.00 80 1017.3
20260506073501 57 186 0.9 3.5 0.00 0.00 0.00 79 1017.1
20260506073001 57 186 0.9 3.5 0.00 0.00 0.00 79 1017.1